EW3786 Weather Reports


time (UTC)temp
C
wind
direction
speed
KPH
gust
KPH
rain 1hr
cm
rain 24hr
cm
rain mn
cm
humidity
%
barometer
mb
20260508063335 3 95 1.6 8.0 0.10 0.20 0.05 72 1020.9
20260508062826 2 70 4.8 11.3 0.10 0.20 0.05 72 1020.9
20260508062340 2 66 3.2 11.3 0.10 0.20 0.05 73 1020.9
20260508061832 2 83 6.4 9.7 0.10 0.20 0.05 74 1020.8
20260508061322 2 102 3.2 8.0 0.10 0.20 0.05 70 1020.8
20260508060835 1 101 6.4 11.3 0.20 0.20 0.05 72 1020.7
20260508060348 1 76 3.2 11.3 0.20 0.20 0.05 72 1020.8
20260508055818 1 118 3.2 6.4 0.20 0.20 0.05 69 1020.7
20260508055331 1 109 1.6 6.4 0.20 0.20 0.05 71 1020.7
20260508054824 1 109 1.6 6.4 0.20 0.20 0.05 71 1020.7
20260508054338 0 106 3.2 9.7 0.10 0.10 0.03 71 1020.7
20260508053829 0 106 4.8 6.4 0.10 0.10 0.03 71 1020.6
20260508053321 0 97 1.6 6.4 0.10 0.10 0.03 74 1020.6
20260508052832 0 97 1.6 4.8 0.10 0.10 0.03 74 1020.5
20260508052323 0 98 1.6 4.8 0.10 0.10 0.03 74 1020.5
20260508051835 0 97 1.6 8.0 0.10 0.10 0.03 75 1020.4
20260508051325 0 95 1.6 8.0 0.10 0.10 0.03 76 1020.4
20260508050840 0 94 1.6 9.7 0.00 0.00 0.00 76 1020.4
20260508050331 0 91 3.2 9.7 0.00 0.00 0.00 78 1020.4
20260508045820 -1 96 1.6 9.7 0.00 0.00 0.00 80 1020.3
20260508045333 -1 95 4.8 9.7 0.00 0.00 0.00 81 1020.3
20260508044845 -1 91 3.2 8.0 0.00 0.00 0.00 85 1020.3
20260508044334 -1 68 1.6 4.8 0.00 0.00 0.00 87 1020.3
20260508043827 -2 67 1.6 4.8 0.00 0.00 0.00 86 1020.2
20260508043340 -2 64 1.6 4.8 0.00 0.00 0.00 87 1020.1
20260508042832 -2 64 0.0 1.6 0.00 0.00 0.00 87 1020.1
20260508042324 -2 64 0.0 0.0 0.00 0.00 0.00 87 1020.2
20260508041818 -2 64 0.0 1.6 0.00 0.00 0.00 87 1020.1
20260508041332 -2 64 0.0 1.6 0.00 0.00 0.00 86 1020.1
20260508040824 -2 64 0.0 4.8 0.00 0.00 0.00 85 1020.0
20260508040318 -2 64 1.6 11.3 0.00 0.00 0.00 83 1020.1
20260508035829 -2 64 6.4 11.3 0.00 0.00 0.00 82 1020.0
20260508035322 -2 85 1.6 11.3 0.00 0.00 0.00 82 1019.9
20260508034836 -2 64 8.0 12.9 0.00 0.00 0.00 82 1019.9
20260508034348 -2 64 6.4 12.9 0.00 0.00 0.00 81 1019.8
20260508033820 -1 66 6.4 12.9 0.00 0.00 0.00 81 1019.8
20260508033334 -1 60 6.4 12.9 0.00 0.00 0.00 84 1019.8
20260508032825 -1 67 4.8 12.9 0.00 0.00 0.00 88 1019.7
20260508032317 -1 64 1.6 8.0 0.00 0.00 0.00 90 1019.8
20260508031831 -1 64 1.6 6.4 0.00 0.00 0.00 91 1019.8
20260508031321 -1 62 0.0 0.0 0.00 0.00 0.00 92 1019.8
20260508030854 -1 62 0.0 1.6 0.00 0.00 0.00 91 1019.8
20260508030328 -1 62 0.0 1.6 0.00 0.00 0.00 91 1019.7
20260508025817 -1 62 0.0 0.0 0.00 0.00 0.00 91 1019.8
20260508025334 -1 62 0.0 4.8 0.00 0.00 0.00 90 1019.8
20260508024824 -1 62 1.6 4.8 0.00 0.00 0.00 90 1019.7
20260508024336 -1 62 1.6 8.0 0.00 0.00 0.00 90 1019.7
20260508023827 -1 62 3.2 8.0 0.00 0.00 0.00 90 1019.6
20260508023320 -1 61 0.0 3.2 0.00 0.00 0.00 91 1019.6
20260508022833 -1 61 0.0 1.6 0.00 0.00 0.00 91 1019.6
20260508022325 -1 61 0.0 3.2 0.00 0.00 0.00 91 1019.6
20260508021837 -1 61 0.0 4.8 0.00 0.00 0.00 90 1019.5
20260508021333 -1 61 0.0 11.3 0.00 0.00 0.00 89 1019.6
20260508020825 -1 60 6.4 12.9 0.00 0.00 0.00 89 1019.6
20260508020319 -1 59 6.4 12.9 0.00 0.00 0.00 91 1019.6
20260508015829 0 49 4.8 9.7 0.00 0.00 0.00 92 1019.5
20260508015321 0 42 0.0 0.0 0.00 0.00 0.00 92 1019.5
20260508014834 0 42 0.0 0.0 0.00 0.00 0.00 92 1019.4
20260508014325 0 42 0.0 0.0 0.00 0.00 0.00 92 1019.4
20260508013833 0 42 0.0 0.0 0.00 0.00 0.00 92 1019.3
20260508013330 0 42 0.0 0.0 0.00 0.00 0.00 93 1019.3
20260508012839 0 42 0.0 0.0 0.00 0.00 0.00 93 1019.3
20260508012329 0 42 0.0 0.0 0.00 0.00 0.00 93 1019.3
20260508011837 0 42 0.0 1.6 0.00 0.00 0.00 93 1019.2
20260508011328 0 42 0.0 1.6 0.00 0.00 0.00 93 1019.2
20260508010820 0 42 0.0 0.0 0.00 0.00 0.00 93 1019.1
20260508010333 0 42 0.0 3.2 0.00 0.00 0.00 92 1019.1
20260508005844 0 42 1.6 3.2 0.00 0.00 0.00 92 1019.0
20260508005334 0 43 0.0 0.0 0.00 0.00 0.00 92 1019.0
20260508004829 0 43 0.0 0.0 0.00 0.00 0.00 93 1018.9
20260508004340 0 43 0.0 0.0 0.00 0.00 0.00 93 1018.9
20260508003832 0 43 0.0 0.0 0.00 0.00 0.00 93 1018.9
20260508003343 0 43 0.0 0.0 0.00 0.00 0.00 93 1018.9
20260508002834 0 43 0.0 0.0 0.00 0.00 0.00 93 1018.8
20260508002327 0 43 0.0 0.0 0.00 0.00 0.00 93 1018.8
20260508001838 0 43 0.0 0.0 0.00 0.00 0.00 93 1018.8
20260508001350 0 43 0.0 0.0 0.00 0.00 0.00 93 1018.8
20260508000819 0 43 0.0 0.0 0.00 0.00 0.00 93 1018.8
20260508000334 0 43 0.0 0.0 0.00 0.00 0.00 93 1018.7
20260507235826 0 43 0.0 0.0 0.00 0.00 0.00 93 1018.6
20260507235317 0 43 0.0 0.0 0.00 0.00 0.00 93 1018.6
20260507234830 0 43 0.0 0.0 0.00 0.00 0.00 93 1018.5
20260507234322 0 43 0.0 0.0 0.00 0.00 0.00 92 1018.5
20260507233832 0 43 0.0 0.0 0.00 0.00 0.00 93 1018.4
20260507233344 0 43 0.0 0.0 0.00 0.00 0.00 93 1018.3
20260507232833 0 43 0.0 0.0 0.00 0.00 0.00 92 1018.2
20260507232344 0 43 0.0 0.0 0.00 0.00 0.00 92 1018.3
20260507231835 0 43 0.0 1.6 0.00 0.00 0.00 92 1018.3
20260507231327 0 43 0.0 4.8 0.00 0.00 0.00 92 1018.2
20260507230822 0 43 3.2 4.8 0.00 0.00 0.00 93 1018.2
20260507230334 0 43 3.2 4.8 0.00 0.00 0.00 93 1018.2
20260507225846 0 42 1.6 4.8 0.00 0.00 0.00 93 1018.1
20260507225337 0 42 1.6 4.8 0.00 0.00 0.00 93 1018.2
20260507224849 0 42 0.0 3.2 0.00 0.00 0.00 93 1018.1
20260507224322 0 42 0.0 0.0 0.00 0.00 0.00 93 1018.1
20260507223833 0 42 0.0 0.0 0.00 0.00 0.00 93 1018.0
20260507223327 0 42 0.0 0.0 0.00 0.00 0.00 93 1018.0
20260507222838 0 42 0.0 0.0 0.00 0.00 0.00 93 1018.0
20260507222333 0 42 0.0 0.0 0.00 0.00 0.00 92 1018.0
20260507221826 0 42 0.0 0.0 0.00 0.00 0.00 92 1018.0
20260507221316 0 42 0.0 0.0 0.00 0.00 0.00 92 1018.0
20260507220831 0 42 0.0 0.0 0.00 0.00 0.00 92 1017.9
20260507220323 0 42 0.0 0.0 0.00 0.00 0.00 92 1017.9
20260507215835 0 42 0.0 0.0 0.00 0.00 0.00 92 1017.9
20260507215328 0 42 0.0 4.8 0.00 0.00 0.00 91 1017.9
20260507214857 0 42 0.0 4.8 0.00 0.00 0.00 91 1017.7
20260507214350 0 41 0.0 6.4 0.00 0.00 0.00 91 1017.6
20260507213824 0 42 3.2 6.4 0.00 0.00 0.00 90 1017.7
20260507213337 0 33 1.6 4.8 0.00 0.00 0.00 89 1017.7
20260507212829 0 31 1.6 4.8 0.00 0.00 0.00 88 1017.8
20260507212320 0 30 1.6 8.0 0.00 0.00 0.00 86 1017.7
20260507211833 0 310 3.2 8.0 0.00 0.00 0.00 85 1017.7
20260507211326 0 360 3.2 4.8 0.00 0.00 0.00 82 1017.7
20260507210839 0 360 0.0 8.0 0.00 0.00 0.00 80 1017.6
20260507210331 0 360 3.2 8.0 0.00 0.00 0.00 79 1017.5
20260507205824 0 87 0.0 8.0 0.00 0.00 0.00 77 1017.3
20260507205340 0 87 1.6 9.7 0.00 0.00 0.00 77 1017.2
20260507204833 0 87 4.8 11.3 0.00 0.00 0.00 76 1017.2
20260507204323 0 91 4.8 11.3 0.00 0.00 0.00 76 1017.1
20260507203835 0 74 1.6 8.0 0.00 0.00 0.00 76 1017.1
20260507203328 0 74 1.6 4.8 0.00 0.00 0.00 76 1017.0
20260507202818 0 73 1.6 4.8 0.00 0.00 0.00 77 1016.9
20260507202332 0 72 1.6 4.8 0.00 0.00 0.00 77 1016.9
20260507201823 0 72 3.2 6.4 0.00 0.00 0.00 77 1016.8
20260507201356 0 72 3.2 6.4 0.00 0.00 0.00 76 1016.7
20260507200830 0 73 1.6 6.4 0.00 0.00 0.00 76 1016.7
20260507200323 0 69 1.6 6.4 0.00 0.00 0.00 76 1016.6
20260507195834 1 68 1.6 4.8 0.00 0.00 0.00 76 1016.5
20260507195324 1 69 0.0 6.4 0.00 0.00 0.00 75 1016.5
20260507194836 1 69 3.2 4.8 0.00 0.00 0.00 75 1016.4
20260507194328 1 68 3.2 4.8 0.00 0.00 0.00 76 1016.4
20260507193819 1 69 0.0 1.6 0.00 0.00 0.00 75 1016.4
20260507193331 1 69 0.0 0.0 0.00 0.00 0.00 75 1016.3
20260507192829 1 69 0.0 1.6 0.00 0.00 0.00 75 1016.3
20260507192320 1 69 0.0 1.6 0.00 0.00 0.00 75 1016.2
20260507191833 1 69 0.0 1.6 0.00 0.00 0.00 73 1016.2
20260507191324 1 69 0.0 1.6 0.00 0.00 0.00 74 1016.1
20260507190837 2 69 0.0 3.2 0.00 0.00 0.00 74 1016.1
20260507190330 2 69 1.6 4.8 0.00 0.00 0.00 74 1016.0
20260507185821 2 68 0.0 6.4 0.00 0.00 0.00 74 1015.9
20260507185333 2 68 0.0 6.4 0.00 0.00 0.00 74 1015.9
20260507184830 2 20 3.2 4.8 0.00 0.00 0.00 73 1016.0
20260507184321 2 8 0.0 4.8 0.00 0.00 0.00 73 1016.0
20260507183856 2 7 0.0 4.8 0.00 0.00 0.00 73 1016.0
20260507183349 2 7 0.0 6.4 0.00 0.00 0.00 72 1016.1
20260507182859 2 6 1.6 6.4 0.00 0.00 0.00 72 1016.1
20260507182329 2 6 1.6 6.4 0.00 0.00 0.00 72 1016.0
20260507181822 3 13 1.6 9.7 0.00 0.00 0.00 71 1016.0
20260507181334 3 14 3.2 9.7 0.00 0.00 0.00 70 1016.0
20260507180845 3 15 3.2 9.7 0.00 0.00 0.00 70 1015.9
20260507180317 3 336 4.8 8.0 0.00 0.00 0.00 70 1015.9
20260507175830 3 340 4.8 11.3 0.00 0.00 0.00 70 1015.8
20260507175326 3 339 6.4 14.5 0.00 0.00 0.00 69 1015.8
20260507174837 3 319 3.2 14.5 0.00 0.00 0.00 69 1015.6
20260507174329 3 313 6.4 9.7 0.00 0.00 0.00 69 1015.6
20260507173843 3 328 3.2 6.4 0.00 0.00 0.00 70 1015.6
20260507173336 3 343 3.2 11.3 0.00 0.00 0.00 69 1015.5
20260507172849 3 343 1.6 11.3 0.00 0.10 0.00 69 1015.5
20260507172321 3 332 3.2 9.7 0.00 0.10 0.00 69 1015.5
20260507171832 3 351 4.8 9.7 0.00 0.10 0.00 69 1015.5
20260507171325 3 360 6.4 9.7 0.00 0.10 0.00 69 1015.4
20260507170822 3 334 3.2 8.0 0.00 0.10 0.00 68 1015.4
20260507170334 3 18 3.2 9.7 0.00 0.10 0.00 68 1015.4
20260507165825 3 346 4.8 9.7 0.00 0.10 0.00 68 1015.4
20260507165317 4 300 4.8 9.7 0.00 0.10 0.00 67 1015.4
20260507164831 4 296 4.8 12.9 0.00 0.10 0.00 67 1015.4
20260507164322 3 325 3.2 9.7 0.00 0.10 0.00 69 1015.3
20260507163836 3 291 3.2 9.7 0.00 0.10 0.00 68 1015.3
20260507163327 4 281 3.2 11.3 0.00 0.10 0.00 67 1015.4
20260507162824 4 328 3.2 14.5 0.00 0.10 0.00 67 1015.3
20260507162336 4 261 4.8 14.5 0.00 0.10 0.00 66 1015.3
20260507161829 4 262 6.4 14.5 0.00 0.10 0.00 64 1015.2
20260507161320 4 307 3.2 14.5 0.00 0.10 0.00 67 1015.2
20260507160830 4 277 4.8 16.1 0.00 0.10 0.00 67 1015.1
20260507160322 5 286 8.0 16.1 0.00 0.10 0.00 67 1015.2
20260507155834 5 318 8.0 16.1 0.00 0.10 0.00 65 1015.1
20260507155347 5 313 4.8 16.1 0.00 0.10 0.00 64 1015.1
20260507154857 5 270 4.8 17.7 0.00 0.10 0.00 63 1015.0
20260507154332 5 326 6.4 17.7 0.00 0.10 0.00 62 1015.0
20260507153841 5 319 4.8 11.3 0.00 0.10 0.00 59 1015.0
20260507153332 5 333 6.4 14.5 0.00 0.10 0.00 59 1014.9
20260507152825 5 281 3.2 14.5 0.00 0.10 0.00 57 1014.9
20260507152336 5 320 4.8 12.9 0.00 0.10 0.00 56 1014.9
20260507151829 6 281 6.4 14.5 0.00 0.10 0.00 53 1014.8
20260507151320 6 311 6.4 17.7 0.00 0.10 0.00 51 1014.7
20260507150830 6 301 6.4 17.7 0.00 0.10 0.00 51 1014.7
20260507150325 7 317 6.4 16.1 0.00 0.10 0.00 52 1014.6
20260507145838 7 310 3.2 16.1 0.00 0.10 0.00 52 1014.6
20260507145330 6 303 6.4 14.5 0.00 0.10 0.00 54 1014.6
20260507144841 6 305 6.4 14.5 0.00 0.10 0.00 57 1014.5
20260507144334 6 337 4.8 9.7 0.00 0.10 0.00 56 1014.6
20260507143846 6 52 0.0 8.0 0.00 0.10 0.00 55 1014.6
20260507143338 6 52 3.2 11.3 0.00 0.10 0.00 53 1014.5
20260507142827 6 3 1.6 11.3 0.00 0.10 0.00 53 1014.5
20260507142321 6 18 4.8 16.1 0.00 0.10 0.00 56 1014.6
20260507141832 6 326 4.8 16.1 0.00 0.10 0.00 57 1014.5
20260507141344 6 316 6.4 14.5 0.00 0.10 0.00 55 1014.4
20260507140820 6 357 6.4 12.9 0.00 0.10 0.00 56 1014.5
20260507140332 6 6 4.8 11.3 0.00 0.10 0.00 57 1014.4
20260507135823 7 349 3.2 8.0 0.00 0.10 0.00 53 1014.4
20260507135336 6 281 1.6 17.7 0.00 0.10 0.00 57 1014.3
20260507134848 6 331 6.4 17.7 0.00 0.10 0.00 57 1014.3
20260507134321 6 326 4.8 16.1 0.00 0.10 0.00 58 1014.3
20260507133834 6 330 3.2 14.5 0.00 0.10 0.00 58 1014.3
20260507133326 6 22 6.4 14.5 0.00 0.10 0.00 58 1014.3
20260507132818 6 296 3.2 14.5 0.00 0.10 0.00 58 1014.2
20260507132334 6 343 4.8 14.5 0.00 0.10 0.00 59 1014.2
20260507131825 6 332 4.8 14.5 0.00 0.10 0.00 59 1014.2
20260507131316 6 326 6.4 12.9 0.00 0.10 0.00 59 1014.2
20260507130830 6 310 4.8 12.9 0.00 0.10 0.00 58 1014.2
20260507130323 6 319 4.8 17.7 0.00 0.10 0.00 58 1014.2
20260507125854 6 322 6.4 17.7 0.00 0.10 0.00 59 1014.2
20260507125324 6 295 3.2 11.3 0.00 0.10 0.00 57 1014.2
20260507124835 6 349 4.8 14.5 0.00 0.10 0.00 59 1014.2
20260507124329 6 325 3.2 16.1 0.00 0.10 0.00 57 1014.1
20260507123819 6 331 9.7 16.1 0.00 0.10 0.00 57 1014.1
20260507123333 6 291 6.4 16.1 0.00 0.10 0.00 57 1014.1
20260507122824 6 326 4.8 16.1 0.00 0.10 0.00 55 1014.0
20260507122335 6 333 6.4 14.5 0.00 0.10 0.00 55 1014.0
20260507121829 7 330 6.4 11.3 0.00 0.10 0.00 53 1014.0
20260507121320 7 328 4.8 9.7 0.00 0.10 0.00 52 1013.9
20260507120833 7 349 6.4 9.7 0.00 0.10 0.00 51 1013.9
20260507120326 7 324 3.2 11.3 0.00 0.10 0.00 53 1013.9
20260507115821 7 323 6.4 11.3 0.00 0.10 0.00 52 1013.8
20260507115334 7 333 3.2 16.1 0.00 0.10 0.00 52 1013.9
20260507114822 7 315 6.4 16.1 0.00 0.10 0.00 51 1013.8
20260507114336 7 264 6.4 16.1 0.00 0.10 0.00 52 1013.7
20260507113827 7 326 8.0 14.5 0.00 0.10 0.00 51 1013.6
20260507113321 7 342 3.2 9.7 0.00 0.10 0.00 48 1013.6
20260507112834 7 343 4.8 9.7 0.00 0.10 0.00 51 1013.6
20260507112327 6 309 4.8 11.3 0.00 0.10 0.00 58 1013.5
20260507111843 6 8 3.2 12.9 0.00 0.10 0.00 54 1013.5
20260507111336 6 325 4.8 14.5 0.00 0.10 0.00 56 1013.5
20260507110826 5 360 4.8 16.1 0.00 0.10 0.00 56 1013.4
20260507110320 5 303 6.4 16.1 0.00 0.10 0.00 56 1013.4
20260507105830 5 314 4.8 16.1 0.00 0.10 0.00 52 1013.3
20260507105344 6 319 3.2 12.9 0.00 0.10 0.00 54 1013.4
20260507104835 5 341 4.8 8.0 0.00 0.10 0.00 56 1013.3
20260507104328 5 295 3.2 8.0 0.00 0.10 0.00 56 1013.4
20260507103817 5 297 3.2 9.7 0.00 0.10 0.00 56 1013.3
20260507103334 5 316 4.8 16.1 0.00 0.10 0.00 55 1013.2
20260507102825 5 291 8.0 16.1 0.00 0.10 0.00 53 1013.2
20260507102356 5 341 3.2 8.0 0.00 0.10 0.00 53 1013.1
20260507101828 5 310 3.2 14.5 0.00 0.10 0.00 53 1013.1
20260507101341 5 330 8.0 14.5 0.00 0.10 0.00 56 1013.1
20260507100831 5 299 4.8 8.0 0.00 0.10 0.00 54 1013.0
20260507100322 5 308 1.6 8.0 0.00 0.10 0.00 54 1013.0
20260507095834 5 277 3.2 9.7 0.00 0.10 0.00 52 1012.9
20260507095327 4 323 3.2 9.7 0.00 0.10 0.00 56 1013.0
20260507094821 4 254 1.6 9.7 0.00 0.10 0.00 57 1012.9
20260507094353 4 258 4.8 9.7 0.00 0.10 0.00 54 1013.0
20260507093837 5 305 1.6 14.5 0.00 0.10 0.00 52 1012.9
20260507093329 5 322 4.8 14.5 0.00 0.10 0.00 55 1012.9
20260507092818 5 313 0.0 6.4 0.00 0.30 0.00 53 1012.8
20260507092330 5 323 3.2 14.5 0.00 0.30 0.00 53 1012.9
20260507091838 5 341 8.0 14.5 0.00 0.30 0.00 55 1012.8
20260507091329 5 335 3.2 14.5 0.00 0.30 0.00 55 1012.8
20260507090820 5 359 4.8 14.5 0.00 0.30 0.00 54 1012.7
20260507090333 5 335 3.2 11.3 0.00 0.30 0.00 54 1012.7
20260507085825 5 338 6.4 11.3 0.00 0.30 0.00 56 1012.6
20260507085358 5 357 1.6 8.0 0.00 0.30 0.00 55 1012.6
20260507084826 5 349 0.0 4.8 0.00 0.30 0.00 54 1012.6
20260507084318 5 348 1.6 4.8 0.00 0.30 0.00 54 1012.5
20260507083830 5 347 1.6 8.0 0.00 0.30 0.00 55 1012.5
20260507083322 5 341 6.4 8.0 0.00 0.30 0.00 60 1012.5
20260507082835 4 343 0.0 8.0 0.00 0.51 0.00 59 1012.5
20260507082326 3 344 1.6 12.9 0.00 0.51 0.00 59 1012.4
20260507081838 3 346 4.8 12.9 0.00 0.51 0.00 60 1012.4
20260507081328 3 329 3.2 9.7 0.00 0.51 0.00 60 1012.4
20260507080824 3 310 3.2 8.0 0.00 0.51 0.00 62 1012.4
20260507080316 3 286 3.2 8.0 0.00 0.51 0.00 63 1012.3
20260507075850 3 328 3.2 8.0 0.00 0.51 0.00 66 1012.3
20260507075320 3 316 0.0 8.0 0.00 0.51 0.00 65 1012.3
20260507074854 3 315 3.2 14.5 0.00 0.51 0.00 66 1012.3
20260507074323 3 326 3.2 14.5 0.00 0.51 0.00 67 1012.3
20260507073836 3 332 3.2 9.7 0.00 0.51 0.00 69 1012.2
20260507073328 3 330 4.8 9.7 0.00 0.51 0.00 69 1012.2
20260507072835 3 328 1.6 6.4 0.00 0.79 0.00 68 1012.2
20260507072330 3 328 3.2 6.4 0.00 0.79 0.00 69 1012.2
20260507071821 2 4 0.0 9.7 0.00 0.79 0.00 72 1012.0
20260507071332 2 3 3.2 9.7 0.00 0.79 0.00 72 1012.0
20260507070825 2 347 0.0 4.8 0.00 0.79 0.00 71 1011.9
20260507070318 2 347 1.6 4.8 0.00 0.79 0.00 73 1011.9
20260507065829 2 345 1.6 4.8 0.00 0.79 0.00 74 1011.9
20260507065341 2 43 1.6 4.8 0.00 0.79 0.00 75 1012.0
20260507064834 2 43 3.2 4.8 0.00 0.79 0.00 74 1011.8
20260507064326 2 16 0.0 6.4 0.00 0.79 0.00 75 1011.8
20260507063818 2 16 3.2 6.4 0.00 0.79 0.00 76 1011.8